Regional Weather Roundup
Issued by NWS Northern Indiana

Home | Current Version | Previous Version | Graphics & Text | Print | Product List | Glossary On
Versions: 1 2 3 4 5 6 7 8 9 10 11 12 13 14 15 16 17 18 19 20 21 22 23 24 25 26 27 28 29 30 31 32 33 34 35 36 37 38 39 40 41 42 43 44 45 46 47 48 49 50
000
ASUS43 KIWX 030810
RWRIWX

KIWX WEATHER ROUNDUP
NATIONAL WEATHER SERVICE NORTHERN INDIANA
400 AM EDT WED JUN 03 2015

NOTE: "FAIR" INDICATES FEW OR NO CLOUDS BELOW 12,000 FEET WITH NO
SIGNIFICANT WEATHER AND/OR OBSTRUCTIONS TO VISIBILITY.

* THESE STATIONS ARE NOT UNDER NWS QUALITY CONTROL. THEY ALSO MAY NOT
  REPORT WEATHER SUCH AS PRECIPITATION OR FOG.

INZ001>027-030900-
NORTHERN INDIANA

CITY           SKY/WX    TMP DP  RH WIND       PRES   REMARKS
GARY*          CLEAR     55  51  87 SE3       30.09F
VALPARAISO     CLEAR     51  49  92 NE5       30.09F
MICHIGAN CITY* CLEAR     46  46 100 CALM      30.10S
LAPORTE*       CLEAR     52  47  85 CALM      30.10S
KNOX*          CLEAR     52  50  93 SE3       30.09S
SOUTH BEND     CLEAR     50  46  86 E3        30.10F
GOSHEN         CLEAR     49  44  83 E5        30.10F
MONTICELLO*    CLEAR     54  53  97 CALM      30.07S
LOGANSPORT*    CLEAR     52  46  82 CALM      30.10S
ROCHESTER*     CLEAR     54  46  76 CALM      30.10S
WARSAW*        CLEAR     48  45  87 CALM      30.09F
ANGOLA*        CLEAR     46  45  93 CALM      30.11S
FORT WAYNE     PTCLDY    48  45  89 NE3       30.10F
HUNTINGTON*    CLEAR     47  46  95 CALM      30.09F
PERU/GRISSOM   CLEAR     53  48  84 E5        30.07F
MARION*        CLEAR     50  48  93 CALM      30.09F

$$
INZ028>050-030900-
CENTRAL INDIANA

CITY           SKY/WX    TMP DP  RH WIND       PRES   REMARKS
LAFAYETTE      FOG       50  50 100 CALM      30.07F VSB 1
KOKOMO*        CLEAR     52  46  82 E3        30.08F
MUNCIE*        MOCLDY    51  49  92 CALM      30.08F
INDIANAPOLIS   PTCLDY    55  49  80 CALM      30.06F

$$
MIZ043>046-050>051-056>058-064>065-071>073-077>080-030900-
SOUTHWEST LOWER MICHIGAN

CITY           SKY/WX    TMP DP  RH WIND       PRES   REMARKS
BATTLE CREEK   CLEAR     50  43  77 CALM      30.12F
BENTON HARBOR  CLEAR     47  44  90 SE3       30.10F
COLDWATER*     CLEAR     46  44  95 CALM      30.12S
HILLSDALE*     CLEAR     52  49  88 E5        30.11F
HOLLAND        CLEAR     50  45  83 E6        30.12F
GRAND RAPIDS   CLEAR     52  48  86 CALM      30.12F
KALAMAZOO      CLEAR     49  42  77 CALM      30.12F
STURGIS*       CLEAR     46  45  93 E6        30.10F
THREE RIVERS*  FAIR      50  44  79 E3        30.11F

$$
OHZ001>008-015>018-024>025-030900-
NORTHWEST OHIO

CITY           SKY/WX    TMP DP  RH WIND       PRES   REMARKS
WAUSEON*       FAIR      50  50 100 NE5       30.11F
DEFIANCE       CLEAR     50  47  89 CALM      30.11S
FINDLAY        PTCLDY    52  49  89 E3        30.09F
TOLEDO EXPRESS CLEAR     49  46  90 CALM      30.11S
TOLEDO METCALF CLEAR     53  47  79 CALM      30.11S
LIMA           CLEAR     49  47  93 CALM      30.09F

$$
AND FOR LAKE MICHIGAN COASTAL AND OPEN LAKE BUOY OBSERVATIONS

STATION/POSITION TEMP    WIND        PRES    VSBY  WAVE
                 AIR SEA DIR/SP/G                  HT/PER
                 (F)     (DEG/KT/KT) (MB)    (MI)  (FT/S)
CALUMET HARBOR    57      70/  1/  3   N/A
MICHIGAN CITY     56     110/  6/  7   N/A
BURNS HARBOR             150/  6/ 10 1019.6S
SAINT JOSEPH      52      CALM  /  1 1020.0S
SOUTH LAKE BUOY   47 38  140/  8/ 10 1019.6F         0
4 MI NW BRIDGMAN  56 55  150/  6/  8   N/A           1
MICHIGAN CITY     56 56  150/  4/  6   N/A           1

$$
&&



USA.gov is the U.S. government's official web portal to all federal, state and local government web resources and services.